| time (UTC) | temp F | wind direction | speed MPH | gust MPH | rain 1hr in | rain 24hr in | rain mn in | humidity % | barometer mb |
| 20260507210332 | 81 | 210 | 3.0 | 9.0 | 0.00 | 0.00 | 0.00 | 52 | 1017.5 |
| 20260507205932 | 81 | 222 | 4.0 | 7.0 | 0.00 | 0.00 | 0.00 | 50 | 1017.6 |
| 20260507205532 | 80 | 311 | 1.0 | 8.0 | 0.00 | 0.00 | 0.00 | 54 | 1017.6 |
| 20260507205132 | 80 | 332 | 1.0 | 8.0 | 0.00 | 0.00 | 0.00 | 53 | 1017.6 |
| 20260507204732 | 80 | 356 | 4.0 | 9.0 | 0.00 | 0.00 | 0.00 | 52 | 1017.6 |
| 20260507204332 | 80 | 244 | 3.0 | 9.0 | 0.00 | 0.00 | 0.00 | 52 | 1017.7 |
| 20260507203932 | 80 | 289 | 1.0 | 7.0 | 0.00 | 0.00 | 0.00 | 53 | 1017.8 |
| 20260507203532 | 80 | 268 | 1.0 | 7.0 | 0.00 | 0.00 | 0.00 | 53 | 1017.8 |
| 20260507203132 | 80 | 262 | 1.0 | 11.0 | 0.00 | 0.00 | 0.00 | 51 | 1017.9 |
| 20260507202732 | 79 | 230 | 2.0 | 13.0 | 0.00 | 0.00 | 0.00 | 53 | 1017.8 |
| 20260507202332 | 79 | 243 | 7.0 | 13.0 | 0.00 | 0.00 | 0.00 | 54 | 1018.0 |
| 20260507201932 | 79 | 240 | 5.0 | 13.0 | 0.00 | 0.00 | 0.00 | 53 | 1018.0 |
| 20260507201132 | 79 | 255 | 6.0 | 11.0 | 0.00 | 0.00 | 0.00 | 54 | 1018.0 |
| 20260507200619 | 79 | 238 | 3.0 | 10.0 | 0.00 | 0.00 | 0.00 | 55 | 1018.0 |
| 20260507195819 | 79 | 205 | 4.0 | 13.0 | 0.00 | 0.00 | 0.00 | 54 | 1018.0 |
| 20260507195419 | 79 | 232 | 8.0 | 13.0 | 0.00 | 0.00 | 0.00 | 51 | 1018.0 |
| 20260507195019 | 79 | 253 | 7.0 | 12.0 | 0.00 | 0.00 | 0.00 | 52 | 1018.0 |
| 20260507194619 | 79 | 239 | 1.0 | 9.0 | 0.00 | 0.00 | 0.00 | 53 | 1018.1 |
| 20260507194219 | 79 | 234 | 3.0 | 10.0 | 0.00 | 0.00 | 0.00 | 54 | 1018.2 |
| 20260507193819 | 79 | 261 | 6.0 | 10.0 | 0.00 | 0.00 | 0.00 | 54 | 1018.1 |
| 20260507193419 | 78 | 243 | 4.0 | 10.0 | 0.00 | 0.00 | 0.00 | 56 | 1018.2 |
| 20260507193019 | 78 | 251 | 5.0 | 10.0 | 0.00 | 0.00 | 0.00 | 54 | 1018.2 |
| 20260507192619 | 79 | 261 | 5.0 | 9.0 | 0.00 | 0.00 | 0.00 | 55 | 1018.3 |
| 20260507192219 | 78 | 287 | 2.0 | 7.0 | 0.00 | 0.00 | 0.00 | 55 | 1018.3 |
| 20260507191819 | 78 | 317 | 1.0 | 4.0 | 0.00 | 0.00 | 0.00 | 56 | 1018.4 |
| 20260507191419 | 78 | 325 | 1.0 | 8.0 | 0.00 | 0.00 | 0.00 | 53 | 1018.4 |
| 20260507190619 | 78 | 205 | 4.0 | 10.0 | 0.00 | 0.00 | 0.00 | 56 | 1018.5 |
| 20260507185819 | 78 | 242 | 5.0 | 10.0 | 0.00 | 0.00 | 0.00 | 55 | 1018.6 |
| 20260507184619 | 77 | 263 | 3.0 | 7.0 | 0.00 | 0.00 | 0.00 | 57 | 1018.8 |
| 20260507183819 | 77 | 262 | 3.0 | 9.0 | 0.00 | 0.00 | 0.00 | 59 | 1018.9 |
| 20260507183419 | 77 | 238 | 4.0 | 9.0 | 0.00 | 0.00 | 0.00 | 60 | 1019.0 |
| 20260507183019 | 76 | 226 | 5.0 | 8.0 | 0.00 | 0.00 | 0.00 | 60 | 1019.0 |
| 20260507182219 | 76 | 256 | 3.0 | 10.0 | 0.00 | 0.00 | 0.00 | 59 | 1019.0 |
| 20260507181819 | 76 | 0 | 0.0 | 4.0 | 0.00 | 0.00 | 0.00 | 57 | 1019.0 |
| 20260507181419 | 76 | 338 | 2.0 | 4.0 | 0.00 | 0.00 | 0.00 | 59 | 1019.1 |
| 20260507180736 | 75 | 339 | 2.0 | 9.0 | 0.00 | 0.00 | 0.00 | 61 | 1019.1 |
| 20260507180336 | 75 | 265 | 3.0 | 6.0 | 0.00 | 0.00 | 0.00 | 60 | 1019.1 |
| 20260507175936 | 75 | 262 | 3.0 | 6.0 | 0.00 | 0.00 | 0.00 | 58 | 1019.1 |
| 20260507174736 | 75 | 250 | 2.0 | 7.0 | 0.00 | 0.00 | 0.00 | 59 | 1019.2 |
| 20260507174336 | 75 | 0 | 0.0 | 4.0 | 0.00 | 0.00 | 0.00 | 58 | 1019.2 |
| 20260507173936 | 74 | 250 | 1.0 | 5.0 | 0.00 | 0.00 | 0.00 | 60 | 1019.2 |
| 20260507173136 | 74 | 247 | 2.0 | 8.0 | 0.00 | 0.00 | 0.00 | 62 | 1019.3 |
| 20260507172736 | 74 | 259 | 2.0 | 4.0 | 0.00 | 0.00 | 0.00 | 62 | 1019.3 |
| 20260507172336 | 74 | 0 | 0.0 | 4.0 | 0.00 | 0.00 | 0.00 | 59 | 1019.3 |
| 20260507170336 | 72 | 258 | 1.0 | 3.0 | 0.00 | 0.00 | 0.00 | 63 | 1018.5 |
| 20260507165936 | 72 | 258 | 1.0 | 3.0 | 0.00 | 0.00 | 0.00 | 63 | 1018.4 |
| 20260507164537 | 70 | 258 | 1.0 | 3.0 | 0.00 | 0.00 | 0.00 | 66 | 1018.5 |
| 20260507163337 | 69 | 0 | 0.0 | 0.0 | 0.00 | 0.00 | 0.00 | 65 | 1018.5 |
| 20260507162649 | 68 | 0 | 0.0 | 1.0 | 0.00 | 0.00 | 0.00 | 67 | 1018.6 |
| 20260507161049 | 66 | 0 | 0.0 | 0.0 | 0.00 | 0.00 | 0.00 | 71 | 1018.6 |
| 20260507160650 | 66 | 0 | 0.0 | 0.0 | 0.00 | 0.00 | 0.00 | 72 | 1018.7 |
| 20260507160249 | 66 | 0 | 0.0 | 0.0 | 0.00 | 0.00 | 0.00 | 71 | 1018.7 |
| 20260507155849 | 65 | 0 | 0.0 | 0.0 | 0.00 | 0.00 | 0.00 | 74 | 1018.7 |
| 20260507155449 | 64 | 0 | 0.0 | 0.0 | 0.00 | 0.00 | 0.00 | 76 | 1018.7 |
| 20260507154650 | 64 | 0 | 0.0 | 0.0 | 0.00 | 0.00 | 0.00 | 77 | 1018.9 |
| 20260507154249 | 64 | 0 | 0.0 | 0.0 | 0.00 | 0.00 | 0.00 | 79 | 1018.9 |
| 20260507153849 | 63 | 0 | 0.0 | 0.0 | 0.00 | 0.00 | 0.00 | 80 | 1019.0 |
| 20260507153450 | 63 | 0 | 0.0 | 0.0 | 0.00 | 0.00 | 0.00 | 79 | 1019.0 |
| 20260507153049 | 62 | 0 | 0.0 | 0.0 | 0.00 | 0.00 | 0.00 | 80 | 1018.9 |
| 20260507151849 | 61 | 0 | 0.0 | 0.0 | 0.00 | 0.00 | 0.00 | 83 | 1019.0 |
| 20260507151449 | 61 | 0 | 0.0 | 0.0 | 0.00 | 0.00 | 0.00 | 84 | 1019.0 |
| 20260507151049 | 60 | 0 | 0.0 | 0.0 | 0.00 | 0.00 | 0.00 | 88 | 1019.0 |
| 20260507150649 | 59 | 0 | 0.0 | 0.0 | 0.00 | 0.00 | 0.00 | 90 | 1019.1 |
| 20260507150249 | 58 | 0 | 0.0 | 0.0 | 0.00 | 0.00 | 0.00 | 90 | 1019.2 |
| 20260507145849 | 58 | 0 | 0.0 | 0.0 | 0.00 | 0.00 | 0.00 | 91 | 1019.2 |
| 20260507145449 | 57 | 0 | 0.0 | 0.0 | 0.00 | 0.00 | 0.00 | 92 | 1019.2 |
| 20260507145049 | 57 | 0 | 0.0 | 0.0 | 0.00 | 0.00 | 0.00 | 93 | 1019.2 |
| 20260507144649 | 56 | 0 | 0.0 | 0.0 | 0.00 | 0.00 | 0.00 | 94 | 1019.2 |
| 20260507143849 | 54 | 0 | 0.0 | 0.0 | 0.00 | 0.00 | 0.00 | 94 | 1019.3 |
| 20260507143449 | 53 | 0 | 0.0 | 0.0 | 0.00 | 0.00 | 0.00 | 94 | 1019.2 |
| 20260507143049 | 53 | 0 | 0.0 | 0.0 | 0.00 | 0.00 | 0.00 | 94 | 1019.2 |
| 20260507142649 | 52 | 0 | 0.0 | 0.0 | 0.00 | 0.00 | 0.00 | 94 | 1019.2 |
| 20260507142249 | 52 | 0 | 0.0 | 0.0 | 0.00 | 0.00 | 0.00 | 94 | 1019.1 |
| 20260507141849 | 51 | 0 | 0.0 | 0.0 | 0.00 | 0.00 | 0.00 | 94 | 1019.1 |
| 20260507141449 | 51 | 0 | 0.0 | 0.0 | 0.00 | 0.00 | 0.00 | 94 | 1019.1 |
| 20260507141049 | 51 | 0 | 0.0 | 0.0 | 0.00 | 0.00 | 0.00 | 94 | 1019.1 |
| 20260507140649 | 50 | 0 | 0.0 | 0.0 | 0.00 | 0.00 | 0.00 | 94 | 1019.1 |
| 20260507140249 | 50 | 0 | 0.0 | 0.0 | 0.00 | 0.00 | 0.00 | 94 | 1019.0 |
| 20260507135849 | 50 | 0 | 0.0 | 0.0 | 0.00 | 0.00 | 0.00 | 94 | 1019.1 |
| 20260507135449 | 50 | 0 | 0.0 | 0.0 | 0.00 | 0.00 | 0.00 | 94 | 1019.0 |
| 20260507135049 | 49 | 0 | 0.0 | 0.0 | 0.00 | 0.00 | 0.00 | 93 | 1019.0 |
| 20260507134649 | 49 | 0 | 0.0 | 0.0 | 0.00 | 0.00 | 0.00 | 93 | 1019.0 |
| 20260507134249 | 49 | 0 | 0.0 | 0.0 | 0.00 | 0.00 | 0.00 | 93 | 1019.0 |
| 20260507133450 | 49 | 0 | 0.0 | 0.0 | 0.00 | 0.00 | 0.00 | 93 | 1018.9 |
| 20260507132649 | 49 | 0 | 0.0 | 0.0 | 0.00 | 0.00 | 0.00 | 93 | 1018.9 |
| 20260507132249 | 49 | 0 | 0.0 | 0.0 | 0.00 | 0.00 | 0.00 | 93 | 1018.8 |
| 20260507131849 | 49 | 0 | 0.0 | 0.0 | 0.00 | 0.00 | 0.00 | 93 | 1018.7 |
| 20260507131449 | 49 | 0 | 0.0 | 0.0 | 0.00 | 0.00 | 0.00 | 93 | 1018.7 |
| 20260507131049 | 49 | 0 | 0.0 | 0.0 | 0.00 | 0.00 | 0.00 | 93 | 1018.7 |
| 20260507130649 | 49 | 0 | 0.0 | 0.0 | 0.00 | 0.00 | 0.00 | 93 | 1018.7 |
| 20260507125849 | 49 | 0 | 0.0 | 0.0 | 0.00 | 0.00 | 0.00 | 93 | 1018.7 |
| 20260507125449 | 49 | 0 | 0.0 | 0.0 | 0.00 | 0.00 | 0.00 | 93 | 1018.7 |
| 20260507124649 | 49 | 0 | 0.0 | 0.0 | 0.00 | 0.00 | 0.00 | 93 | 1018.6 |
| 20260507124249 | 49 | 0 | 0.0 | 0.0 | 0.00 | 0.00 | 0.00 | 93 | 1018.6 |
| 20260507123849 | 49 | 0 | 0.0 | 0.0 | 0.00 | 0.00 | 0.00 | 93 | 1018.6 |
| 20260507123449 | 49 | 0 | 0.0 | 0.0 | 0.00 | 0.00 | 0.00 | 93 | 1018.6 |
| 20260507123049 | 49 | 0 | 0.0 | 0.0 | 0.00 | 0.00 | 0.00 | 93 | 1018.6 |
| 20260507122429 | 49 | 0 | 0.0 | 0.0 | 0.00 | 0.00 | 0.00 | 93 | 1018.6 |
| 20260507121630 | 49 | 0 | 0.0 | 0.0 | 0.00 | 0.00 | 0.00 | 93 | 1018.6 |
| 20260507121229 | 49 | 0 | 0.0 | 0.0 | 0.00 | 0.00 | 0.00 | 93 | 1018.6 |
| 20260507120030 | 49 | 0 | 0.0 | 0.0 | 0.00 | 0.00 | 0.00 | 93 | 1018.7 |
| 20260507115630 | 49 | 0 | 0.0 | 0.0 | 0.00 | 0.00 | 0.00 | 93 | 1018.7 |
| 20260507114829 | 49 | 0 | 0.0 | 0.0 | 0.00 | 0.00 | 0.00 | 93 | 1018.6 |
| 20260507113629 | 49 | 0 | 0.0 | 3.0 | 0.00 | 0.00 | 0.00 | 92 | 1018.7 |
| 20260507113231 | 49 | 0 | 0.0 | 3.0 | 0.00 | 0.00 | 0.00 | 92 | 1018.7 |
| 20260507112029 | 50 | 0 | 0.0 | 0.0 | 0.00 | 0.00 | 0.00 | 93 | 1018.7 |
| 20260507111629 | 50 | 0 | 0.0 | 0.0 | 0.00 | 0.00 | 0.00 | 93 | 1018.7 |
| 20260507111229 | 50 | 0 | 0.0 | 0.0 | 0.00 | 0.00 | 0.00 | 92 | 1018.7 |
| 20260507110430 | 50 | 0 | 0.0 | 0.0 | 0.00 | 0.00 | 0.00 | 92 | 1018.7 |
| 20260507105629 | 50 | 0 | 0.0 | 0.0 | 0.00 | 0.00 | 0.00 | 92 | 1018.7 |
| 20260507105229 | 50 | 0 | 0.0 | 0.0 | 0.00 | 0.00 | 0.00 | 92 | 1018.6 |
| 20260507104338 | 50 | 0 | 0.0 | 0.0 | 0.00 | 0.00 | 0.00 | 92 | 1018.6 |
| 20260507103938 | 50 | 0 | 0.0 | 0.0 | 0.00 | 0.00 | 0.00 | 92 | 1018.7 |
| 20260507103538 | 50 | 0 | 0.0 | 0.0 | 0.00 | 0.00 | 0.00 | 92 | 1018.7 |
| 20260507103138 | 51 | 0 | 0.0 | 0.0 | 0.00 | 0.00 | 0.00 | 92 | 1018.7 |
| 20260507102738 | 50 | 0 | 0.0 | 0.0 | 0.00 | 0.00 | 0.00 | 92 | 1018.8 |
| 20260507102338 | 51 | 0 | 0.0 | 0.0 | 0.00 | 0.00 | 0.00 | 92 | 1018.8 |
| 20260507101938 | 51 | 0 | 0.0 | 0.0 | 0.00 | 0.00 | 0.00 | 92 | 1018.8 |
| 20260507101538 | 51 | 0 | 0.0 | 0.0 | 0.00 | 0.00 | 0.00 | 92 | 1018.8 |
| 20260507100738 | 51 | 0 | 0.0 | 0.0 | 0.00 | 0.00 | 0.00 | 92 | 1018.8 |
| 20260507100338 | 51 | 0 | 0.0 | 0.0 | 0.00 | 0.00 | 0.00 | 92 | 1018.8 |
| 20260507095938 | 51 | 0 | 0.0 | 0.0 | 0.00 | 0.00 | 0.00 | 92 | 1018.8 |
| 20260507095538 | 51 | 0 | 0.0 | 0.0 | 0.00 | 0.00 | 0.00 | 92 | 1018.8 |
| 20260507095138 | 51 | 0 | 0.0 | 0.0 | 0.00 | 0.00 | 0.00 | 92 | 1018.8 |
| 20260507094338 | 51 | 0 | 0.0 | 0.0 | 0.00 | 0.00 | 0.00 | 92 | 1018.8 |
| 20260507093938 | 51 | 0 | 0.0 | 0.0 | 0.00 | 0.00 | 0.00 | 92 | 1018.8 |
| 20260507093538 | 51 | 0 | 0.0 | 0.0 | 0.00 | 0.00 | 0.00 | 92 | 1018.8 |
| 20260507093138 | 51 | 0 | 0.0 | 0.0 | 0.00 | 0.00 | 0.00 | 92 | 1018.9 |
| 20260507092738 | 51 | 0 | 0.0 | 0.0 | 0.00 | 0.00 | 0.00 | 92 | 1018.8 |
| 20260507092338 | 51 | 0 | 0.0 | 0.0 | 0.00 | 0.00 | 0.00 | 92 | 1018.9 |
| 20260507091538 | 51 | 0 | 0.0 | 0.0 | 0.00 | 0.00 | 0.00 | 91 | 1019.1 |
| 20260507091138 | 51 | 0 | 0.0 | 0.0 | 0.00 | 0.00 | 0.00 | 91 | 1019.1 |
| 20260507090345 | 51 | 0 | 0.0 | 0.0 | 0.00 | 0.00 | 0.00 | 91 | 1019.1 |
| 20260507085545 | 52 | 0 | 0.0 | 0.0 | 0.00 | 0.00 | 0.00 | 91 | 1019.1 |
| 20260507085145 | 52 | 0 | 0.0 | 0.0 | 0.00 | 0.00 | 0.00 | 91 | 1019.1 |
| 20260507084745 | 52 | 0 | 0.0 | 0.0 | 0.00 | 0.00 | 0.00 | 91 | 1019.2 |
| 20260507084345 | 52 | 0 | 0.0 | 0.0 | 0.00 | 0.00 | 0.00 | 91 | 1019.2 |
| 20260507083545 | 52 | 0 | 0.0 | 0.0 | 0.00 | 0.00 | 0.00 | 91 | 1019.1 |
| 20260507082832 | 52 | 0 | 0.0 | 0.0 | 0.00 | 0.00 | 0.00 | 91 | 1019.2 |
| 20260507082431 | 52 | 0 | 0.0 | 0.0 | 0.00 | 0.00 | 0.00 | 90 | 1019.1 |
| 20260507082031 | 52 | 0 | 0.0 | 0.0 | 0.00 | 0.00 | 0.00 | 90 | 1019.2 |
| 20260507081631 | 52 | 0 | 0.0 | 0.0 | 0.00 | 0.00 | 0.00 | 90 | 1019.2 |
| 20260507081232 | 53 | 0 | 0.0 | 0.0 | 0.00 | 0.00 | 0.00 | 90 | 1019.1 |
| 20260507080432 | 53 | 0 | 0.0 | 2.0 | 0.00 | 0.00 | 0.00 | 90 | 1019.1 |
| 20260507080032 | 53 | 0 | 0.0 | 3.0 | 0.00 | 0.00 | 0.00 | 90 | 1019.1 |
| 20260507075631 | 53 | 258 | 1.0 | 3.0 | 0.00 | 0.00 | 0.00 | 90 | 1019.0 |
| 20260507075231 | 53 | 258 | 1.0 | 3.0 | 0.00 | 0.00 | 0.00 | 89 | 1019.1 |
| 20260507074832 | 53 | 0 | 0.0 | 0.0 | 0.00 | 0.00 | 0.00 | 89 | 1019.1 |
| 20260507074431 | 54 | 0 | 0.0 | 0.0 | 0.00 | 0.00 | 0.00 | 90 | 1019.1 |
| 20260507073631 | 54 | 0 | 0.0 | 0.0 | 0.00 | 0.00 | 0.00 | 89 | 1019.1 |
| 20260507073231 | 54 | 0 | 0.0 | 0.0 | 0.00 | 0.00 | 0.00 | 89 | 1019.2 |
| 20260507072832 | 54 | 0 | 0.0 | 0.0 | 0.00 | 0.00 | 0.00 | 89 | 1019.2 |
| 20260507072031 | 54 | 0 | 0.0 | 0.0 | 0.00 | 0.00 | 0.00 | 88 | 1019.2 |
| 20260507071632 | 55 | 0 | 0.0 | 0.0 | 0.00 | 0.00 | 0.00 | 88 | 1019.2 |
| 20260507070431 | 55 | 0 | 0.0 | 1.0 | 0.00 | 0.00 | 0.00 | 87 | 1019.2 |
| 20260507070031 | 55 | 0 | 0.0 | 1.0 | 0.00 | 0.00 | 0.00 | 88 | 1019.3 |
| 20260507065631 | 55 | 0 | 0.0 | 1.0 | 0.00 | 0.00 | 0.00 | 87 | 1019.2 |
| 20260507064832 | 55 | 0 | 0.0 | 3.0 | 0.00 | 0.00 | 0.00 | 87 | 1019.2 |
| 20260507064431 | 56 | 0 | 0.0 | 3.0 | 0.00 | 0.00 | 0.00 | 87 | 1019.2 |
| 20260507064031 | 56 | 258 | 2.0 | 3.0 | 0.00 | 0.00 | 0.00 | 87 | 1019.2 |
| 20260507063631 | 56 | 258 | 2.0 | 3.0 | 0.00 | 0.00 | 0.00 | 86 | 1019.2 |
| 20260507063231 | 56 | 258 | 1.0 | 2.0 | 0.00 | 0.00 | 0.00 | 86 | 1019.2 |
| 20260507062831 | 56 | 258 | 1.0 | 2.0 | 0.00 | 0.00 | 0.00 | 86 | 1019.2 |
| 20260507062431 | 56 | 0 | 0.0 | 3.0 | 0.00 | 0.00 | 0.00 | 86 | 1019.2 |
| 20260507062032 | 57 | 258 | 1.0 | 3.0 | 0.00 | 0.00 | 0.00 | 86 | 1019.1 |
| 20260507061631 | 57 | 258 | 1.0 | 3.0 | 0.00 | 0.00 | 0.00 | 86 | 1019.1 |
| 20260507061231 | 57 | 258 | 1.0 | 3.0 | 0.00 | 0.00 | 0.00 | 86 | 1019.2 |
| 20260507055948 | 57 | 258 | 1.0 | 3.0 | 0.00 | 0.00 | 0.00 | 86 | 1019.3 |
| 20260507055548 | 57 | 0 | 0.0 | 6.0 | 0.00 | 0.00 | 0.00 | 86 | 1019.3 |
| 20260507055148 | 57 | 0 | 0.0 | 6.0 | 0.00 | 0.00 | 0.00 | 86 | 1019.3 |
| 20260507054748 | 56 | 258 | 3.0 | 6.0 | 0.00 | 0.00 | 0.00 | 87 | 1019.2 |
| 20260507054348 | 56 | 0 | 0.0 | 4.0 | 0.00 | 0.00 | 0.00 | 87 | 1019.2 |
| 20260507053948 | 56 | 0 | 0.0 | 4.0 | 0.00 | 0.00 | 0.00 | 87 | 1019.3 |
| 20260507053442 | 56 | 259 | 1.0 | 4.0 | 0.00 | 0.00 | 0.00 | 88 | 1019.3 |
| 20260507053042 | 56 | 259 | 2.0 | 6.0 | 0.00 | 0.00 | 0.00 | 87 | 1019.4 |
| 20260507052642 | 55 | 259 | 1.0 | 6.0 | 0.00 | 0.00 | 0.00 | 87 | 1019.3 |
| 20260507052242 | 55 | 259 | 3.0 | 6.0 | 0.00 | 0.00 | 0.00 | 87 | 1019.2 |
| 20260507051842 | 56 | 259 | 3.0 | 4.0 | 0.00 | 0.00 | 0.00 | 86 | 1019.2 |
| 20260507051442 | 56 | 0 | 0.0 | 0.0 | 0.00 | 0.00 | 0.00 | 86 | 1019.4 |
| 20260507051042 | 56 | 0 | 0.0 | 0.0 | 0.00 | 0.00 | 0.00 | 85 | 1019.4 |
| 20260507050642 | 56 | 0 | 0.0 | 0.0 | 0.00 | 0.00 | 0.00 | 85 | 1019.4 |
| 20260507050242 | 56 | 0 | 0.0 | 0.0 | 0.00 | 0.00 | 0.00 | 85 | 1019.4 |
| 20260507045442 | 57 | 0 | 0.0 | 0.0 | 0.00 | 0.00 | 0.00 | 84 | 1019.4 |
| 20260507045042 | 57 | 0 | 0.0 | 0.0 | 0.00 | 0.00 | 0.00 | 84 | 1019.3 |
| 20260507044642 | 57 | 0 | 0.0 | 0.0 | 0.00 | 0.00 | 0.00 | 84 | 1019.3 |
| 20260507044242 | 57 | 0 | 0.0 | 0.0 | 0.00 | 0.00 | 0.00 | 83 | 1019.3 |
| 20260507043842 | 58 | 0 | 0.0 | 0.0 | 0.00 | 0.00 | 0.00 | 82 | 1019.3 |
| 20260507043117 | 58 | 0 | 0.0 | 0.0 | 0.00 | 0.00 | 0.00 | 82 | 1019.1 |
| 20260507042317 | 59 | 0 | 0.0 | 0.0 | 0.00 | 0.00 | 0.00 | 81 | 1019.1 |
| 20260507041917 | 59 | 0 | 0.0 | 1.0 | 0.00 | 0.00 | 0.00 | 81 | 1019.0 |
| 20260507041517 | 59 | 0 | 0.0 | 2.0 | 0.00 | 0.00 | 0.00 | 80 | 1019.0 |
| 20260507041117 | 60 | 0 | 0.0 | 2.0 | 0.00 | 0.00 | 0.00 | 79 | 1019.0 |
| 20260507040717 | 60 | 0 | 0.0 | 4.0 | 0.00 | 0.00 | 0.00 | 79 | 1018.9 |
| 20260507040317 | 60 | 0 | 0.0 | 4.0 | 0.00 | 0.00 | 0.00 | 78 | 1018.8 |
| 20260507035917 | 60 | 259 | 2.0 | 4.0 | 0.00 | 0.00 | 0.00 | 78 | 1018.8 |
| 20260507035117 | 61 | 259 | 2.0 | 3.0 | 0.00 | 0.00 | 0.00 | 77 | 1018.6 |
| 20260507034611 | 61 | 259 | 2.0 | 4.0 | 0.00 | 0.00 | 0.00 | 77 | 1018.6 |
| 20260507034211 | 61 | 259 | 1.0 | 4.0 | 0.00 | 0.00 | 0.00 | 76 | 1018.7 |
| 20260507033811 | 62 | 259 | 1.0 | 4.0 | 0.00 | 0.00 | 0.00 | 76 | 1018.6 |
| 20260507033411 | 62 | 259 | 2.0 | 4.0 | 0.00 | 0.00 | 0.00 | 75 | 1018.5 |
| 20260507032739 | 62 | 0 | 0.0 | 3.0 | 0.00 | 0.00 | 0.00 | 75 | 1018.5 |
| 20260507032338 | 63 | 0 | 0.0 | 3.0 | 0.00 | 0.00 | 0.00 | 74 | 1018.4 |
| 20260507031938 | 63 | 259 | 1.0 | 3.0 | 0.00 | 0.00 | 0.00 | 74 | 1018.4 |
| 20260507031538 | 63 | 0 | 0.0 | 2.0 | 0.00 | 0.00 | 0.00 | 73 | 1018.4 |
| 20260507031138 | 63 | 0 | 0.0 | 2.0 | 0.00 | 0.00 | 0.00 | 72 | 1018.2 |
| 20260507030700 | 64 | 0 | 0.0 | 3.0 | 0.00 | 0.00 | 0.00 | 71 | 1018.2 |
| 20260507030259 | 64 | 0 | 0.0 | 3.0 | 0.00 | 0.00 | 0.00 | 71 | 1018.2 |
| 20260507025859 | 64 | 0 | 0.0 | 2.0 | 0.00 | 0.00 | 0.00 | 70 | 1018.1 |
| 20260507025459 | 64 | 0 | 0.0 | 3.0 | 0.00 | 0.00 | 0.00 | 70 | 1018.1 |
| 20260507025059 | 65 | 0 | 0.0 | 8.0 | 0.00 | 0.00 | 0.00 | 70 | 1018.0 |
| 20260507024659 | 65 | 0 | 0.0 | 8.0 | 0.00 | 0.00 | 0.00 | 69 | 1018.0 |
| 20260507024259 | 65 | 258 | 1.0 | 8.0 | 0.00 | 0.00 | 0.00 | 69 | 1017.9 |
| 20260507023859 | 65 | 0 | 0.0 | 6.0 | 0.00 | 0.00 | 0.00 | 68 | 1017.8 |
| 20260507023459 | 66 | 0 | 0.0 | 8.0 | 0.00 | 0.00 | 0.00 | 68 | 1017.8 |
| 20260507023059 | 66 | 258 | 2.0 | 8.0 | 0.00 | 0.00 | 0.00 | 68 | 1017.9 |
| 20260507022659 | 66 | 257 | 4.0 | 8.0 | 0.00 | 0.00 | 0.00 | 67 | 1017.8 |
| 20260507022259 | 67 | 257 | 3.0 | 8.0 | 0.00 | 0.00 | 0.00 | 67 | 1017.7 |
| 20260507021859 | 67 | 257 | 1.0 | 8.0 | 0.00 | 0.00 | 0.00 | 67 | 1017.7 |
| 20260507021459 | 67 | 256 | 4.0 | 8.0 | 0.00 | 0.00 | 0.00 | 66 | 1017.7 |
| 20260507021059 | 67 | 255 | 3.0 | 8.0 | 0.00 | 0.00 | 0.00 | 65 | 1017.7 |
| 20260507020659 | 68 | 255 | 3.0 | 8.0 | 0.00 | 0.00 | 0.00 | 65 | 1017.6 |
| 20260507020259 | 68 | 249 | 3.0 | 7.0 | 0.00 | 0.00 | 0.00 | 65 | 1017.6 |
| 20260507015859 | 68 | 250 | 2.0 | 7.0 | 0.00 | 0.00 | 0.00 | 65 | 1017.6 |
| 20260507015459 | 68 | 250 | 3.0 | 8.0 | 0.00 | 0.00 | 0.00 | 65 | 1017.6 |
| 20260507015059 | 69 | 250 | 3.0 | 8.0 | 0.00 | 0.00 | 0.00 | 64 | 1017.5 |
| 20260507014659 | 69 | 254 | 4.0 | 8.0 | 0.00 | 0.00 | 0.00 | 63 | 1017.5 |
| 20260507014259 | 69 | 254 | 5.0 | 9.0 | 0.00 | 0.00 | 0.00 | 62 | 1017.4 |
| 20260507013859 | 70 | 258 | 5.0 | 9.0 | 0.00 | 0.00 | 0.00 | 62 | 1017.4 |
| 20260507013459 | 70 | 257 | 3.0 | 9.0 | 0.00 | 0.00 | 0.00 | 62 | 1017.4 |
| 20260507013059 | 71 | 258 | 4.0 | 8.0 | 0.00 | 0.00 | 0.00 | 61 | 1017.4 |
| 20260507012259 | 71 | 257 | 4.0 | 8.0 | 0.00 | 0.00 | 0.00 | 61 | 1017.4 |
| 20260507011859 | 71 | 0 | 0.0 | 8.0 | 0.00 | 0.00 | 0.00 | 60 | 1017.5 |
| 20260507011459 | 71 | 254 | 4.0 | 8.0 | 0.00 | 0.00 | 0.00 | 61 | 1017.5 |
| 20260507011059 | 71 | 250 | 4.0 | 12.0 | 0.00 | 0.00 | 0.00 | 60 | 1017.5 |
| 20260507010659 | 72 | 260 | 4.0 | 12.0 | 0.00 | 0.00 | 0.00 | 59 | 1017.6 |
| 20260507010259 | 72 | 276 | 4.0 | 9.0 | 0.00 | 0.00 | 0.00 | 59 | 1017.6 |
| 20260507005859 | 72 | 279 | 5.0 | 9.0 | 0.00 | 0.00 | 0.00 | 58 | 1017.6 |
| 20260507005459 | 72 | 281 | 5.0 | 9.0 | 0.00 | 0.00 | 0.00 | 59 | 1017.6 |
| 20260507004659 | 72 | 263 | 3.0 | 9.0 | 0.00 | 0.00 | 0.00 | 58 | 1017.7 |
| 20260507004259 | 73 | 259 | 5.0 | 9.0 | 0.00 | 0.00 | 0.00 | 57 | 1017.6 |
| 20260507003843 | 73 | 263 | 2.0 | 8.0 | 0.00 | 0.00 | 0.00 | 57 | 1017.6 |
| 20260507003443 | 73 | 253 | 3.0 | 8.0 | 0.00 | 0.00 | 0.00 | 58 | 1017.6 |
| 20260507003043 | 73 | 236 | 3.0 | 8.0 | 0.00 | 0.00 | 0.00 | 59 | 1017.6 |
| 20260507002643 | 73 | 221 | 3.0 | 8.0 | 0.00 | 0.00 | 0.00 | 57 | 1017.7 |
| 20260507002243 | 73 | 245 | 3.0 | 11.0 | 0.00 | 0.00 | 0.00 | 58 | 1017.6 |
| 20260507001843 | 73 | 234 | 3.0 | 11.0 | 0.00 | 0.00 | 0.00 | 59 | 1017.6 |
| 20260507001443 | 73 | 248 | 6.0 | 10.0 | 0.00 | 0.00 | 0.00 | 58 | 1017.7 |
| 20260507001043 | 73 | 253 | 3.0 | 8.0 | 0.00 | 0.00 | 0.00 | 58 | 1017.6 |
| 20260507000643 | 73 | 251 | 2.0 | 9.0 | 0.00 | 0.00 | 0.00 | 58 | 1017.6 |
| 20260507000243 | 73 | 263 | 4.0 | 10.0 | 0.00 | 0.00 | 0.00 | 57 | 1017.6 |
| 20260506235843 | 73 | 250 | 4.0 | 10.0 | 0.00 | 0.00 | 0.00 | 56 | 1017.6 |
| 20260506235443 | 73 | 273 | 4.0 | 10.0 | 0.00 | 0.00 | 0.00 | 58 | 1017.6 |
| 20260506235043 | 73 | 233 | 4.0 | 11.0 | 0.00 | 0.00 | 0.00 | 59 | 1017.6 |
| 20260506234643 | 73 | 219 | 3.0 | 11.0 | 0.00 | 0.00 | 0.00 | 57 | 1017.6 |
| 20260506233443 | 73 | 239 | 6.0 | 10.0 | 0.00 | 0.00 | 0.00 | 57 | 1017.6 |
| 20260506233043 | 73 | 247 | 3.0 | 11.0 | 0.00 | 0.00 | 0.00 | 56 | 1017.6 |
| 20260506232643 | 73 | 233 | 4.0 | 11.0 | 0.00 | 0.00 | 0.00 | 57 | 1017.6 |
| 20260506232243 | 73 | 232 | 6.0 | 11.0 | 0.00 | 0.00 | 0.00 | 58 | 1017.6 |
| 20260506231843 | 73 | 227 | 5.0 | 9.0 | 0.00 | 0.00 | 0.00 | 57 | 1017.6 |
| 20260506231443 | 73 | 249 | 4.0 | 9.0 | 0.00 | 0.00 | 0.00 | 57 | 1017.7 |
| 20260506230730 | 73 | 226 | 6.0 | 11.0 | 0.00 | 0.00 | 0.00 | 57 | 1017.8 |
| 20260506230330 | 73 | 253 | 5.0 | 11.0 | 0.00 | 0.00 | 0.00 | 58 | 1017.8 |
| 20260506225930 | 73 | 232 | 5.0 | 11.0 | 0.00 | 0.00 | 0.00 | 59 | 1017.9 |
| 20260506225530 | 73 | 229 | 2.0 | 10.0 | 0.00 | 0.00 | 0.00 | 58 | 1017.9 |
| 20260506225130 | 73 | 235 | 6.0 | 10.0 | 0.00 | 0.00 | 0.00 | 59 | 1018.0 |
| 20260506224730 | 73 | 219 | 5.0 | 9.0 | 0.00 | 0.00 | 0.00 | 58 | 1018.0 |
| 20260506224330 | 73 | 211 | 4.0 | 11.0 | 0.00 | 0.00 | 0.00 | 58 | 1018.1 |
| 20260506223930 | 73 | 229 | 3.0 | 11.0 | 0.00 | 0.00 | 0.00 | 58 | 1018.1 |
| 20260506222730 | 73 | 230 | 8.0 | 12.0 | 0.00 | 0.00 | 0.00 | 57 | 1018.2 |
| 20260506222330 | 73 | 277 | 3.0 | 11.0 | 0.00 | 0.00 | 0.00 | 59 | 1018.3 |
| 20260506221530 | 73 | 269 | 4.0 | 11.0 | 0.00 | 0.00 | 0.00 | 59 | 1018.4 |
| 20260506221130 | 73 | 254 | 4.0 | 11.0 | 0.00 | 0.00 | 0.00 | 57 | 1018.4 |
| 20260506220730 | 73 | 0 | 0.0 | 9.0 | 0.00 | 0.00 | 0.00 | 59 | 1018.5 |
| 20260506220330 | 73 | 207 | 2.0 | 9.0 | 0.00 | 0.00 | 0.00 | 61 | 1018.5 |
| 20260506215930 | 72 | 209 | 5.0 | 9.0 | 0.00 | 0.00 | 0.00 | 59 | 1018.6 |
| 20260506214730 | 73 | 215 | 4.0 | 9.0 | 0.00 | 0.00 | 0.00 | 59 | 1018.8 |
| 20260506214124 | 73 | 219 | 6.0 | 13.0 | 0.00 | 0.00 | 0.00 | 60 | 1018.9 |
| 20260506213724 | 73 | 256 | 6.0 | 13.0 | 0.00 | 0.00 | 0.00 | 58 | 1018.8 |
| 20260506213324 | 73 | 238 | 2.0 | 7.0 | 0.00 | 0.00 | 0.00 | 60 | 1018.8 |
| 20260506212923 | 73 | 233 | 3.0 | 7.0 | 0.00 | 0.00 | 0.00 | 59 | 1018.9 |
| 20260506211823 | 72 | 233 | 7.0 | 12.0 | 0.00 | 0.00 | 0.00 | 62 | 1018.0 |
| 20260506211423 | 71 | 317 | 1.0 | 8.0 | 0.00 | 0.00 | 0.00 | 61 | 1018.1 |
| 20260506211023 | 71 | 326 | 3.0 | 8.0 | 0.00 | 0.00 | 0.00 | 59 | 1018.2 |
| 20260506210623 | 71 | 0 | 0.0 | 9.0 | 0.00 | 0.00 | 0.00 | 60 | 1018.3 |